Stündliche Wetter Abashevo

Heute, 25 Februar, Donnerstag

Zeit Temperatur Niederschläge Wind Luftdruck Luftfeuchtigkeit
00:00 -24°C° 0 mm 3 m/S 758 mmHg 89%
01:00 -24°C° 0 mm 4 m/S 757 mmHg 91%
02:00 -24°C° 0 mm 4 m/S 756 mmHg 93%
03:00 -23°C° 0 mm 4 m/S 755 mmHg 94%
04:00 -24°C° 0.3 mm 5 m/S 754 mmHg 95%
05:00 -22°C° 0.3 mm 5 m/S 754 mmHg 95%
06:00 -23°C° 0.3 mm 6 m/S 753 mmHg 95%
07:00 -22°C° 0.6 mm 6 m/S 752 mmHg 95%
08:00 -21°C° 0.6 mm 7 m/S 751 mmHg 95%
09:00 -21°C° 0 mm 7 m/S 750 mmHg 94%
10:00 -19°C° 0.9 mm 7 m/S 749 mmHg 94%
11:00 -18°C° 0.9 mm 8 m/S 747 mmHg 94%
12:00 -16°C° 0.9 mm 8 m/S 746 mmHg 94%
13:00 -14°C° 0.9 mm 7 m/S 745 mmHg 94%
14:00 -13°C° 0.9 mm 7 m/S 744 mmHg 94%
15:00 -11°C° 0.9 mm 6 m/S 743 mmHg 94%
16:00 -8°C° 0.4 mm 5 m/S 743 mmHg 95%
17:00 -7°C° 0.4 mm 5 m/S 743 mmHg 95%
18:00 -5°C° 0.4 mm 4 m/S 742 mmHg 96%
19:00 -3°C° 0.1 mm 4 m/S 742 mmHg 97%
20:00 -1°C° 0.1 mm 3 m/S 742 mmHg 98%
21:00 0°C° 0.1 mm 3 m/S 742 mmHg 99%
22:00 0°C° 0 mm 3 m/S 742 mmHg 99%
23:00 -1°C° 0 mm 4 m/S 742 mmHg 99%

Morgen, 26 Februar, Freitag

Zeit Temperatur Niederschläge Wind Luftdruck Luftfeuchtigkeit
00:00 -1°C° 0 mm 4 m/S 742 mmHg 99%
01:00 -1°C° 0 mm 4 m/S 742 mmHg 98%
02:00 -1°C° 0 mm 4 m/S 742 mmHg 98%
03:00 -1°C° 0 mm 4 m/S 742 mmHg 97%
04:00 -1°C° 0 mm 4 m/S 742 mmHg 97%
05:00 -1°C° 0 mm 4 m/S 742 mmHg 97%
06:00 -2°C° 0 mm 4 m/S 742 mmHg 97%
07:00 0°C° 0.1 mm 3 m/S 741 mmHg 98%
08:00 0°C° 0.1 mm 3 m/S 741 mmHg 99%
09:00 0°C° 0.1 mm 3 m/S 741 mmHg 99%
10:00 0°C° 0.2 mm 3 m/S 740 mmHg 99%
11:00 -1°C° 0.2 mm 4 m/S 740 mmHg 99%
12:00 -1°C° 0.2 mm 4 m/S 739 mmHg 99%
13:00 -1°C° 0.2 mm 5 m/S 739 mmHg 99%
14:00 0°C° 0.2 mm 5 m/S 738 mmHg 99%
15:00 -1°C° 0.2 mm 6 m/S 738 mmHg 99%
16:00 -1°C° 0.1 mm 6 m/S 737 mmHg 99%
17:00 -1°C° 0.1 mm 6 m/S 736 mmHg 98%
18:00 -1°C° 0.1 mm 7 m/S 735 mmHg 98%
19:00 -1°C° 0.3 mm 6 m/S 735 mmHg 98%
20:00 -1°C° 0.3 mm 6 m/S 735 mmHg 98%
21:00 -1°C° 0.3 mm 6 m/S 735 mmHg 98%
22:00 -1°C° 0 mm 6 m/S 735 mmHg 96%
23:00 -2°C° 0 mm 7 m/S 735 mmHg 95%

übermorgen, 27 Februar, Samstag

Zeit Temperatur Niederschläge Wind Luftdruck Luftfeuchtigkeit
00:00 -2°C° 0 mm 7 m/S 734 mmHg 93%
01:00 -2°C° 0 mm 7 m/S 734 mmHg 93%
02:00 -2°C° 0 mm 7 m/S 734 mmHg 92%
03:00 -2°C° 0 mm 7 m/S 734 mmHg 92%
04:00 -3°C° 0 mm 7 m/S 734 mmHg 93%
05:00 -3°C° 0 mm 7 m/S 733 mmHg 94%
06:00 -3°C° 0 mm 7 m/S 733 mmHg 96%
07:00 -3°C° 0.1 mm 7 m/S 733 mmHg 95%
08:00 -3°C° 0.1 mm 7 m/S 733 mmHg 95%
09:00 -3°C° 0.1 mm 7 m/S 733 mmHg 95%
10:00 -3°C° 0.1 mm 6 m/S 733 mmHg 96%
11:00 -3°C° 0.1 mm 6 m/S 732 mmHg 97%
12:00 -3°C° 0.1 mm 6 m/S 732 mmHg 98%
13:00 -3°C° 0.1 mm 6 m/S 732 mmHg 98%
14:00 -3°C° 0.1 mm 6 m/S 733 mmHg 97%
15:00 -3°C° 0.1 mm 6 m/S 733 mmHg 97%
16:00 -6°C° 0.2 mm 6 m/S 733 mmHg 96%
17:00 -9°C° 0.2 mm 6 m/S 733 mmHg 94%
18:00 -11°C° 0.2 mm 5 m/S 734 mmHg 93%
19:00 -12°C° 0.1 mm 5 m/S 735 mmHg 92%
20:00 -13°C° 0.1 mm 5 m/S 735 mmHg 91%
21:00 -15°C° 0.1 mm 6 m/S 736 mmHg 91%
22:00 -15°C° 0 mm 5 m/S 737 mmHg 91%
23:00 -15°C° 0 mm 5 m/S 737 mmHg 91%

28 Februar, Sonntag

Zeit Temperatur Niederschläge Wind Luftdruck Luftfeuchtigkeit
00:00 -17°C° 0 mm 5 m/S 738 mmHg 92%
01:00 -18°C° 0 mm 5 m/S 738 mmHg 92%
02:00 -18°C° 0 mm 5 m/S 739 mmHg 92%
03:00 -19°C° 0 mm 5 m/S 740 mmHg 93%
04:00 -20°C° 0 mm 5 m/S 740 mmHg 93%
05:00 -20°C° 0 mm 5 m/S 740 mmHg 94%
06:00 -20°C° 0 mm 4 m/S 741 mmHg 94%
07:00 -20°C° 0 mm 4 m/S 741 mmHg 94%
08:00 -20°C° 0 mm 4 m/S 742 mmHg 93%
09:00 -20°C° 0 mm 4 m/S 742 mmHg 93%
10:00 -19°C° 0 mm 4 m/S 743 mmHg 92%
11:00 -18°C° 0 mm 4 m/S 743 mmHg 90%
12:00 -18°C° 0 mm 5 m/S 743 mmHg 89%
13:00 -16°C° 0 mm 4 m/S 744 mmHg 89%
14:00 -16°C° 0 mm 4 m/S 744 mmHg 89%
15:00 -15°C° 0 mm 4 m/S 744 mmHg 88%
16:00 -16°C° 0 mm 4 m/S 745 mmHg 90%
17:00 -15°C° 0 mm 3 m/S 745 mmHg 92%
18:00 -16°C° 0 mm 3 m/S 746 mmHg 94%
19:00 -17°C° 0 mm 3 m/S 746 mmHg 95%
20:00 -17°C° 0 mm 3 m/S 747 mmHg 95%
21:00 -18°C° 0 mm 3 m/S 748 mmHg 96%
22:00 -18°C° 0 mm 3 m/S 748 mmHg 96%
23:00 -18°C° 0 mm 2 m/S 748 mmHg 97%

1 März, Montag

Zeit Temperatur Niederschläge Wind Luftdruck Luftfeuchtigkeit
00:00 -19°C° 0 mm 2 m/S 749 mmHg 97%
01:00 -19°C° 0 mm 2 m/S 749 mmHg 97%
02:00 -19°C° 0 mm 2 m/S 749 mmHg 97%
03:00 -19°C° 0 mm 2 m/S 750 mmHg 97%
04:00 -20°C° 0 mm 2 m/S 750 mmHg 97%
05:00 -20°C° 0 mm 2 m/S 750 mmHg 97%
06:00 -20°C° 0 mm 2 m/S 750 mmHg 97%
07:00 -19°C° 0 mm 2 m/S 751 mmHg 96%
08:00 -18°C° 0 mm 2 m/S 751 mmHg 96%
09:00 -18°C° 0 mm 2 m/S 751 mmHg 95%
10:00 -16°C° 0 mm 2 m/S 751 mmHg 93%
11:00 -14°C° 0 mm 2 m/S 751 mmHg 91%
12:00 -13°C° 0 mm 2 m/S 751 mmHg 90%
13:00 -12°C° 0 mm 2 m/S 751 mmHg 90%
14:00 -12°C° 0 mm 3 m/S 750 mmHg 91%
15:00 -10°C° 0 mm 3 m/S 750 mmHg 92%
16:00 -11°C° 0 mm 4 m/S 749 mmHg 93%
17:00 -11°C° 0 mm 4 m/S 749 mmHg 93%
18:00 -11°C° 0 mm 4 m/S 748 mmHg 94%
19:00 -11°C° 0 mm 5 m/S 747 mmHg 94%
20:00 -11°C° 0 mm 5 m/S 747 mmHg 94%
21:00 -10°C° 0 mm 6 m/S 746 mmHg 93%
22:00 -9°C° 0.1 mm 6 m/S 745 mmHg 94%
23:00 -8°C° 0.1 mm 6 m/S 744 mmHg 94%

2 März, Dienstag

Zeit Temperatur Niederschläge Wind Luftdruck Luftfeuchtigkeit
00:00 -7°C° 0.1 mm 7 m/S 744 mmHg 94%
01:00 -6°C° 0.4 mm 7 m/S 743 mmHg 95%
02:00 -6°C° 0.4 mm 7 m/S 742 mmHg 95%
03:00 -4°C° 0.4 mm 7 m/S 741 mmHg 96%
04:00 -4°C° 0.5 mm 7 m/S 740 mmHg 96%
05:00 -3°C° 0.5 mm 7 m/S 740 mmHg 97%
06:00 -3°C° 0.5 mm 7 m/S 739 mmHg 97%
07:00 -3°C° 0.5 mm 7 m/S 739 mmHg 97%
08:00 -3°C° 0.5 mm 7 m/S 738 mmHg 97%
09:00 -3°C° 0.5 mm 7 m/S 738 mmHg 97%
10:00 -3°C° 0.1 mm 7 m/S 738 mmHg 97%
11:00 -3°C° 0.1 mm 7 m/S 738 mmHg 97%
12:00 -3°C° 0.1 mm 7 m/S 738 mmHg 97%
13:00 -3°C° 0.1 mm 6 m/S 738 mmHg 95%
14:00 -3°C° 0.1 mm 6 m/S 738 mmHg 93%
15:00 -3°C° 0.1 mm 6 m/S 738 mmHg 91%
16:00 -3°C° 0.1 mm 6 m/S 738 mmHg 92%
17:00 -4°C° 0.1 mm 5 m/S 738 mmHg 92%
18:00 -4°C° 0.1 mm 5 m/S 738 mmHg 93%
19:00 -5°C° 0.1 mm 5 m/S 738 mmHg 93%
20:00 -5°C° 0.1 mm 5 m/S 739 mmHg 93%
21:00 -5°C° 0.1 mm 6 m/S 739 mmHg 93%
22:00 -5°C° 0 mm 5 m/S 738 mmHg 93%
23:00 -5°C° 0 mm 5 m/S 738 mmHg 93%
Mehr zeigen

Wir brauchen deine Erlaubnis

Meteoprog und unser Service Anbieter werden persönliche Daten aufbewahren, so wie Cookies, Geräte Bezeichnung oder ähnliche Technologien von deinem Gerät und Prozess, so wie Persönliche Daten Inhalte und Werbungen, genauso wie social Media und den Verkehr zu analysieren.

  • Aufbewahrung und/oder Zugang zu deiner Geräte Informationen.

    Cookies, Geräte Bezeichnung oder andere Informationen, können aufbewahrt oder Zugang zu deinem Gerät erhalten, für den Grund, der oben angegeben wird.

  • Personalisierte Werbung und Inhalte, Messungen, Einblick in das Publikum und Produkt Entwicklung.

    Werbungen und Inhalte können personalisiert werden, basierend auf ein Profil. Mehr Daten können besser personalisierte Werbungen und Inhalte hinzufügen. Werbung und Inhalte können gezeigt und gemessen werden. Einblicke über das Publikum, welche die Werbung gesehen haben und den Inhalt, können abgeleitet werden. So wie Daten können genutzt werden, um es zu verbessern oder die Benutzer Erfahrung zu verbessern das System und die Software.

Wenn du “Ich stimme zu” klickst, erlaubst du uns, die Cookies zu benutzen die Geräte Bezeichnung, den Web oder ähnliche Technologien zu benutzen. Deine Settings, können in deinem Gerät bei deinem Browser geändert werden.

Für den bestimmten Zweck, berechtigten Interessen beruhen darauf, mehr als auf den Inhalt. Du kannst mehr darüber in unseren Privaten und Cookie Politik lesen.